[ hide orbit diagram ]
For accurate long-term ephemerides, please instead use our Horizons system.This orbit viewer was implemented using two-body methods, and hence should not be used for determining accurate long-term trajectories (over several years or decades) or planetary encounter circumstances.
Orbital Elements at Epoch 2459200.5 (2020-Dec-17.0) TDB
Reference: JPL 6 (heliocentric ecliptic J2000)
Element | Value | Uncertainty (1-sigma) | Units |
e | .006912766486613657 | 6.7772e-08 | |
a | 2.641842387977424 | 3.395e-08 | au |
q | 2.623579948454899 | 1.6425e-07 | au |
i | 8.312428420900874 | 5.5747e-06 | deg |
node | 259.8679573281165 | 4.2736e-05 | deg |
peri | 141.7870278523847 | 0.0005699 | deg |
M | 157.8259732385468 | 0.00056347 | deg |
tp | 2458512.901756904583 (2019-Jan-29.40175690) | 0.0024589 | TDB |
period | 1568.407039950336 4.29 | 3.0233e-05 8.277e-08 | d yr |
n | .2295322520430662 | 4.4245e-09 | deg/d |
Q | 2.66010482749995 | 3.4184e-08 | au |
|
| | Orbit Determination Parameters
Additional Information
|
[ show covariance matrix ]
Physical Parameter Table
Parameter |
Symbol |
Value |
Units |
Sigma |
Reference |
Notes |
absolute magnitude |
H |
16.66 |
|
.42674 |
E2020-QM5 |
autocmod 2.8 |
|
544512 (2014 WZ40) Discovered 2013-Jul-02 by Pan-STARRS 1 at Haleakala |
Reference: | Last Updated: 2020-02-24 |
|
|